Dewpoint
3 3 3 2 5 3 3 4 4 5 7 8 8 5 -4 -2 -1 -0 2 4 1 -3 -3 2 4 4 3 0 -2 -3 -1 -0 -0 0 -0 -3 -3 -5 -5 -5 -7 -8 -7 -7 -9
2 1 5 4 4 4 4 4 3 5 6 7 8 -0 -3 2 -0 0 3 2 -2 -1 1 4 4 4 1 -2 -3 -2 -1 -1 -1 -2 -2 -5 -6 -7 -8 -9 -9 -9 -10 -10 -11
3 3 2 4 4 3 2 2 2 3 6 8 6 -4 1 1 -2 -1 -3 -2 -0 1 2 3 1 0 -2 -3 -3 -3 -1 -1 -2 -4 -4 -6 -7 -8 -9 -12 -11 -11 -11 -11 -7
3 3 3 2 2 2 1 1 1 2 4 5 5 4 2 0 0 -3 -6 -3 -1 0 2 2 -2 -3 -4 -3 -5 -3 -3 -2 -3 -6 -7 -8 -8 -9 -8 -12 -11 -10 -10 -10 -5
2 3 2 2 1 1 0 0 2 3 5 5 2 5 4 -0 -1 -4 -7 -2 -2 -2 0 -1 -4 -5 -4 -7 -6 -5 -5 -5 -7 -9 -9 -10 -11 -11 -12 -14 -11 -11 -10 -9 -5
-1 -1 -2 -0 -2 -3 -2 -0 3 3 3 6 5 3 0 -1 -3 -4 -7 -3 -2 -2 -3 -5 -6 -6 -7 -6 -6 -6 -6 -7 -9 -9 -8 -7 -7 -7 -12 -10 -11 -11 -10 -6 -5
-5 -0 -1 -0 -3 -1 -1 4 6 4 4 4 4 5 -1 -1 -4 -4 -5 -4 -4 -5 -6 -6 -7 -8 -7 -7 -7 -8 -8 -8 -7 -7 -6 -5 -11 -6 -14 -9 -8 -7 -6 -6 -4
-2 -1 -2 -3 0 1 2 4 5 6 6 4 4 3 -1 -2 -4 -4 -5 -4 -6 -7 -7 -7 -8 -9 -8 -10 -9 -10 -9 -9 -7 -7 -4 -10 -13 -12 -8 -9 -7 -7 -6 -4 -0
-3 -5 -3 1 2 5 5 4 5 5 5 5 3 3 -1 -3 -4 -6 -6 -6 -6 -7 -7 -8 -12 -7 -6 -6 -5 -7 -7 -7 -6 -6 -5 -5 -9 -11 -6 -8 -6 -5 -3 -1 1
-5 2 3 4 3 3 4 4 4 4 4 3 2 -1 -1 -2 -3 -5 -9 -9 -9 -8 -10 -9 -6 -4 -3 -3 -5 -7 -9 -7 -6 -3 -2 -3 -2 -4 -6 -6 -6 -5 -2 1 2
1 2 3 2 4 4 3 3 2 2 0 1 0 -0 0 -1 -3 -5 -6 -7 -9 -7 -2 -4 -2 -2 -2 -3 -5 -5 -5 -5 -3 -1 1 0 0 -1 -2 -3 -3 -3 -1 2 2
1 2 3 3 3 3 3 1 2 2 1 0 -0 -1 -0 -1 -2 -2 -3 -5 -6 -1 -4 -3 -1 -3 -3 -2 -3 -3 -3 -2 -2 -1 1 1 2 -1 -1 -0 -0 -1 0 2 1
1 2 2 2 2 2 1 1 2 2 2 1 0 -1 -1 -2 -1 -1 -2 -2 -2 -1 -2 -3 -2 -3 -2 -0 -1 -0 -2 0 1 2 -0 1 -3 -5 -1 1 1 -0 1 1 1
2 2 2 0 0 1 0 -0 1 2 1 2 0 -2 -1 -2 -2 -1 -1 -1 -2 -2 -2 -2 -3 -2 -2 -1 -1 -1 0 2 3 1 -1 0 -3 -2 -1 0 2 2 2 1 1
1 2 3 -1 -1 -2 -1 -3 -2 1 3 2 0 -1 -1 -4 -3 -2 -2 -2 -1 -0 -5 -3 -1 0 -0 -1 0 1 0 2 3 2 0 1 1 -0 -1 0 -0 1 1 1 0
-1 -0 0 -0 -1 -2 -1 1 2 -0 2 1 -0 -1 -1 -1 -1 -1 -2 -2 -1 -2 -1 -0 -1 -0 0 -1 -1 1 3 2 2 1 -1 -1 2 2 0 -0 -1 -0 0 0 -1
-0 -0 -1 -1 -1 -1 -1 2 -0 1 -2 0 -0 -1 -0 0 -0 -1 -0 -0 -1 -5 -3 -1 0 -0 -0 2 2 2 -1 -3 -3 -2 -0 2 0 3 -1 -2 -1 -0 -0 0 -1
-0 0 0 0 -1 -1 0 -2 2 0 1 -2 -1 -1 1 -0 -0 0 1 -0 -1 -1 -0 -4 -5 0 -0 2 3 3 0 -3 -6 -3 0 -1 1 0 -1 0 1 0 0 -1 -2
-1 0 1 0 1 1 -0 -0 -1 -1 -1 -0 -0 0 0 -0 0 0 1 1 -0 -0 -2 -0 -1 -0 -0 0 1 3 2 -0 -1 -3 1 -1 -2 -3 -1 1 1 1 1 -1 -2
-2 1 1 1 2 2 -1 1 0 -1 -2 -1 -1 -1 1 1 1 1 1 -1 -0 -1 -0 0 0 1 0 0 1 2 0 1 0 -5 -1 -2 -2 -1 -1 1 2 1 1 -0 -2
0 1 2 3 2 -2 -0 -1 -1 -0 -0 -0 1 0 -0 1 0 1 1 -1 -1 -0 -1 0 -0 1 2 2 2 3 4 3 1 1 1 1 -3 -3 -2 -1 1 1 0 -1 -3
0 -1 1 2 -1 -1 -1 -1 -1 -1 0 1 -0 -1 -0 -0 0 1 0 -0 -1 -1 1 0 1 2 2 -1 -0 1 2 2 1 -1 1 0 1 -4 -3 1 1 0 -0 -2 -3
-1 0 -0 -1 -1 -1 0 1 -0 -0 0 0 0 -1 -1 -0 0 -1 -0 -0 -1 -0 1 -0 -0 -2 -7 -3 1 3 2 2 -0 -0 1 0 -4 -5 1 1 1 1 0 -2 -3
-2 -2 -2 -1 -1 -1 0 1 0 0 0 -0 -0 -1 -1 -0 -1 -0 -0 -0 -0 0 1 0 0 -2 -8 -10 -1 2 1 2 2 2 2 1 -3 -5 -5 -3 -2 -0 -1 -3 -4
-4 -1 0 -1 -1 -1 -1 -0 0 0 -0 -0 -0 -1 -0 1 -0 0 -1 1 0 1 1 0 1 0 0 -0 -0 -0 -0 0 3 3 3 -3 -2 -4 -6 -6 -6 -6 -5 -5 -5
-3 -2 -2 -1 -1 -2 -2 -0 -0 -0 -1 -1 0 -1 -1 -0 -1 -1 -2 -0 -1 2 1 1 1 1 1 1 1 2 1 1 1 -0 0 0 0 -3 -4 -4 -4 -4 -4 -4 -5
-7 -3 -2 -2 -2 -5 -2 -1 -1 -2 -2 -1 -1 -1 -1 -1 -2 -2 -2 -2 -2 1 1 2 2 1 2 -0 -0 -1 -2 -1 -1 -0 -0 1 -2 -4 -4 -4 -4 -5 -5 -5 -5
Wind_Speed
10 0 12 19 20 16 12 13 16 16 17 21 22 17 17 19 18 16 12 2 3 9 13 13 16 14 12 6 5 3 5 3 6 6 4 1 3 2 2 3 2 3 4 7 3
15 5 17 23 18 17 12 12 13 13 16 17 27 20 23 21 18 15 5 2 8 10 14 16 16 14 6 4 4 5 4 6 1 2 4 4 3 2 2 1 3 5 6 4 1
17 16 14 24 25 18 12 10 11 13 15 19 24 24 24 20 14 6 5 12 8 11 14 17 13 10 6 4 4 3 3 4 1 3 6 4 3 1 3 3 6 7 4 1 2
17 19 21 15 17 17 14 12 10 13 17 14 16 25 20 16 5 4 5 10 10 11 14 14 8 5 4 4 3 6 5 4 3 3 3 2 0 2 6 2 8 4 2 4 4
15 15 15 16 12 13 12 10 13 15 17 15 27 19 13 10 7 8 8 10 10 10 14 12 8 6 5 5 4 5 2 6 6 5 3 0 1 4 9 8 10 9 7 4 5
12 12 11 11 10 9 12 13 16 19 15 14 19 16 7 9 7 9 10 10 9 12 13 9 7 10 10 5 6 5 9 5 4 3 2 2 1 4 2 2 5 4 4 6 7
12 13 12 11 11 13 16 17 21 23 22 25 18 11 18 10 8 9 11 11 9 10 11 13 12 2 7 6 8 7 4 2 5 3 2 6 3 6 6 7 5 4 3 7 8
13 13 13 14 13 17 18 20 18 21 29 25 20 14 7 9 10 10 12 11 11 12 12 12 10 13 6 13 6 5 5 2 2 4 3 4 7 3 5 11 7 4 10 9 9
16 16 15 15 16 21 26 22 20 20 25 24 17 12 5 8 9 11 10 12 11 9 9 8 6 7 5 5 5 6 3 1 4 2 3 2 6 5 5 12 12 12 9 13 11
19 19 17 18 17 19 27 24 24 21 21 16 14 10 5 5 8 10 13 13 9 12 9 5 6 4 5 5 4 4 3 0 1 5 3 4 13 11 15 14 21 18 10 15 12
18 18 16 18 20 26 26 18 10 15 32 16 13 16 14 13 9 9 12 12 10 9 4 6 7 3 2 1 3 5 4 2 1 1 4 5 10 17 17 21 27 23 17 16 11
16 14 14 15 17 21 12 11 14 12 13 19 21 21 15 9 8 9 6 4 4 5 2 7 4 1 1 5 6 5 3 2 4 2 3 5 15 17 11 9 15 18 18 15 11
13 14 14 17 22 16 26 21 11 8 5 11 16 17 10 11 8 11 7 6 6 6 5 6 2 2 3 4 5 4 4 1 2 7 1 8 8 4 1 2 5 11 14 11 8
18 22 28 21 17 13 9 5 3 4 5 10 11 8 8 4 6 12 8 4 6 5 4 6 3 3 3 4 3 2 1 2 1 5 2 4 5 7 1 2 2 9 11 9 8
21 27 11 15 10 9 4 10 9 5 6 6 8 6 8 6 3 8 11 8 4 3 4 2 2 3 4 1 1 2 1 1 1 2 3 2 2 8 2 4 7 13 13 11 10
13 9 4 7 6 4 5 3 3 6 3 3 4 4 3 7 4 5 6 8 4 5 6 2 1 1 2 1 2 2 2 3 3 3 2 4 3 6 4 5 4 8 17 13 10
3 3 7 8 6 6 6 3 5 6 3 1 2 4 4 5 4 4 4 4 3 5 4 5 2 2 1 2 1 2 4 3 5 4 5 1 2 11 6 6 6 13 18 12 10
7 6 8 5 4 3 1 4 10 5 3 3 1 2 4 2 2 2 2 3 2 5 3 4 5 4 3 3 3 1 4 4 5 2 5 4 6 6 2 8 6 6 8 10 11
3 5 6 4 2 2 2 6 6 5 3 4 2 4 3 2 3 2 1 3 3 3 4 4 4 2 2 1 2 2 1 2 5 2 2 3 8 10 5 5 6 9 10 13 13
4 5 4 3 1 3 4 4 1 3 1 2 2 2 3 1 2 1 2 2 2 1 2 3 3 2 0 1 2 1 5 3 3 2 5 5 6 6 5 7 7 11 21 18 14
2 1 9 4 2 4 4 2 3 2 2 3 3 3 3 3 3 3 5 2 4 3 2 4 3 2 1 5 7 2 1 2 3 4 4 4 6 7 7 8 10 18 23 17 16
0 2 8 4 2 4 2 4 3 1 3 3 2 2 2 1 1 1 2 1 5 6 3 1 3 3 8 2 4 4 7 6 4 5 4 1 8 3 8 8 9 19 19 16 15
2 2 7 3 4 2 1 2 2 1 1 2 3 3 2 2 2 1 1 3 5 2 3 2 1 3 7 4 2 4 5 4 3 3 7 4 7 1 2 5 9 13 17 17 16
1 2 5 8 8 6 4 2 2 1 1 1 1 1 2 1 1 1 1 2 4 3 5 3 3 6 6 4 3 4 6 7 8 3 4 15 22 20 11 10 15 19 22 28 28
3 2 2 1 4 3 2 4 3 3 2 2 0 2 3 2 2 3 2 1 2 4 3 4 4 4 6 10 8 14 12 8 14 18 10 16 12 25 16 9 18 30 30 27 32
3 2 3 3 2 3 4 2 4 1 3 1 2 1 3 4 6 6 4 4 5 2 5 2 3 0 5 9 6 10 14 16 18 19 18 24 28 29 37 33 22 24 25 24 18
5 4 2 1 2 3 2 2 2 1 1 1 4 1 3 7 9 10 9 6 3 7 7 5 2 3 6 4 8 7 7 12 6 6 10 13 18 17 14 16 21 24 20 19 18
Wind_Direction
4 144 188 177 176 168 174 183 190 190 185 188 180 168 150 150 151 147 106 35 134 146 153 147 148 139 127 105 91 85 65 128 167 162 164 159 121 115 135 158 105 95 144 145 172
27 321 97 141 149 152 163 175 188 183 193 187 168 157 149 142 153 141 88 62 146 144 151 149 136 141 98 89 58 70 89 182 240 128 145 122 130 140 162 153 164 149 132 150 271
46 56 91 100 118 124 127 146 167 177 163 145 156 151 148 138 133 53 134 144 142 142 148 143 129 126 80 73 36 70 133 146 58 102 130 124 130 174 159 222 199 185 189 331 341
65 62 81 135 125 123 118 111 143 155 164 153 166 145 146 154 123 61 122 143 127 141 150 138 118 87 79 82 60 93 70 94 124 68 85 106 253 276 225 226 177 163 235 315 326
60 66 69 76 76 116 128 117 115 139 144 156 143 142 140 98 74 99 124 139 121 126 143 135 116 100 101 101 90 78 98 79 96 71 73 255 303 276 264 241 231 254 258 286 301
58 59 62 76 83 106 128 128 120 137 147 147 160 126 119 72 84 97 121 138 126 138 142 141 121 119 93 69 63 101 99 94 68 51 44 344 278 335 253 143 196 210 195 233 276
62 65 66 73 74 100 124 119 117 135 136 137 140 148 75 68 91 100 127 136 121 119 121 110 121 116 111 95 104 98 74 23 30 37 17 340 281 236 221 170 149 143 235 273 272
75 66 70 75 83 107 119 116 115 126 144 127 124 157 72 93 104 119 117 122 107 106 111 100 104 102 67 113 54 62 54 74 334 10 18 31 271 269 232 190 187 296 272 259 219
74 69 69 76 83 91 116 120 119 121 130 127 139 126 106 108 105 98 117 130 133 121 111 110 97 73 73 76 42 12 147 172 329 25 338 90 277 299 212 201 220 304 271 208 211
78 77 89 76 93 109 104 104 111 109 124 133 127 106 114 82 85 94 108 120 116 124 111 60 52 72 35 52 194 180 132 96 267 349 343 282 268 262 254 240 252 278 226 200 214
86 86 93 84 112 109 108 98 77 69 75 71 75 87 99 93 92 96 106 107 103 80 66 29 66 78 56 42 120 105 85 71 266 112 341 244 275 279 262 256 258 255 215 205 217
92 90 108 73 113 116 100 87 85 105 58 61 66 69 69 76 80 66 88 81 57 77 39 28 82 261 321 59 83 60 89 327 292 317 350 317 290 281 278 247 252 236 194 198 221
89 104 95 83 108 103 106 105 104 106 88 25 30 39 37 57 47 26 44 68 73 52 30 104 149 315 81 43 73 42 111 66 237 322 256 327 294 313 352 79 120 164 182 200 238
82 99 100 79 92 109 88 57 19 19 90 339 359 37 16 40 54 38 38 65 48 119 77 81 342 66 61 65 94 119 172 92 31 33 275 26 276 296 323 188 179 176 191 217 259
91 122 83 47 59 69 358 329 335 345 72 323 334 8 24 65 96 20 32 62 73 77 79 257 62 59 60 188 148 162 164 184 186 84 30 353 55 270 351 239 232 221 218 231 261
103 104 64 16 22 10 351 358 17 41 49 322 313 354 46 35 39 42 52 71 105 72 38 70 36 63 149 83 72 102 92 45 40 86 13 249 127 282 225 210 226 214 223 232 256
162 335 357 356 329 323 344 30 52 74 271 1 45 33 59 20 35 47 25 27 99 79 2 353 342 323 161 87 358 101 57 343 351 7 227 183 54 246 247 232 217 207 213 228 244
249 263 314 338 337 312 287 55 66 216 232 232 140 75 89 22 43 52 78 38 65 87 98 132 319 189 172 227 182 141 122 146 233 274 286 356 244 256 240 312 224 195 207 230 241
250 289 305 326 353 129 78 51 171 211 174 138 76 72 17 37 127 92 80 181 207 176 135 127 300 323 186 53 103 147 52 171 102 88 3 261 287 292 253 228 228 222 231 238 242
269 298 347 7 41 145 83 113 80 221 156 69 112 159 147 199 93 94 208 217 187 166 127 189 54 217 311 111 43 122 155 56 16 360 291 285 273 239 294 234 220 233 235 241 247
240 228 8 20 86 100 98 131 133 103 164 166 172 129 153 170 171 198 186 220 195 155 89 132 101 282 94 201 180 126 199 103 124 164 204 296 261 215 232 222 216 230 233 239 250
305 58 4 5 31 32 75 131 145 70 56 71 71 74 129 138 71 78 199 250 165 145 129 54 133 218 218 211 181 180 193 156 142 225 234 203 270 248 246 265 261 255 238 241 252
48 59 16 37 100 3 47 60 79 102 1 53 52 46 46 101 55 69 45 18 145 122 144 173 17 346 344 6 48 215 205 182 126 96 204 162 261 291 301 307 277 264 253 256 268
94 38 46 55 74 117 130 153 126 174 147 150 152 89 80 56 48 220 218 232 195 161 144 131 172 196 203 203 145 218 213 203 186 173 211 229 274 263 286 284 276 264 264 276 284
47 91 91 353 19 85 96 159 144 178 212 192 157 195 159 163 189 213 187 140 162 174 136 126 235 200 258 260 247 248 242 213 213 225 218 265 251 277 278 262 272 281 278 277 283
61 106 95 96 77 60 7 213 164 195 150 247 202 186 190 200 198 206 156 197 203 141 163 174 257 6 271 263 255 261 248 236 240 246 255 264 273 273 276 282 279 280 278 276 273
49 80 117 26 84 98 216 161 220 112 258 270 201 130 254 244 253 259 248 253 212 167 185 162 181 24 272 311 302 289 243 207 202 209 211 232 244 271 272 259 265 287 259 262 272
Height
1449 1445 1448 1451 1457 1461 1465 1466 1469 1471 1475 1478 1482 1486 1489 1491 1494 1497 1498 1502 1502 1503 1504 1506 1507 1510 1511 1513 1515 1516 1530 1540 1535 1536 1535 1534 1535 1536 1536 1537 1537 1538 1540 1541 1542
1450 1446 1443 1452 1458 1461 1464 1467 1469 1472 1475 1478 1480 1486 1490 1493 1495 1497 1500 1501 1502 1503 1505 1507 1508 1511 1512 1515 1516 1518 1532 1533 1532 1532 1534 1534 1535 1535 1537 1537 1537 1538 1540 1541 1542
1453 1449 1448 1453 1455 1461 1466 1468 1469 1471 1475 1476 1480 1487 1491 1494 1497 1499 1500 1499 1502 1504 1506 1507 1509 1511 1512 1516 1519 1522 1529 1531 1533 1533 1533 1534 1535 1535 1535 1537 1536 1537 1539 1540 1541
1460 1457 1455 1458 1462 1465 1469 1470 1470 1472 1475 1477 1483 1490 1492 1495 1502 1501 1501 1502 1503 1505 1507 1508 1511 1511 1516 1520 1522 1526 1529 1530 1534 1534 1535 1536 1536 1535 1535 1534 1534 1536 1538 1539 1539
1466 1465 1464 1464 1466 1466 1470 1472 1472 1472 1475 1481 1486 1491 1494 1496 1502 1502 1503 1505 1506 1507 1509 1510 1512 1512 1519 1521 1523 1526 1531 1532 1535 1535 1537 1537 1536 1535 1531 1533 1534 1535 1536 1537 1538
1470 1469 1469 1469 1470 1470 1472 1473 1474 1477 1480 1484 1489 1493 1495 1500 1504 1504 1505 1507 1509 1510 1511 1511 1511 1516 1519 1523 1524 1529 1533 1535 1537 1537 1538 1538 1537 1535 1531 1530 1531 1533 1535 1535 1535
1474 1475 1473 1473 1473 1472 1475 1476 1477 1480 1484 1489 1494 1495 1498 1505 1506 1506 1507 1509 1510 1511 1512 1513 1515 1517 1519 1525 1530 1532 1537 1538 1538 1538 1539 1538 1535 1534 1530 1531 1532 1533 1534 1534 1534
1479 1479 1478 1477 1476 1476 1478 1480 1482 1485 1489 1494 1495 1501 1505 1508 1508 1508 1509 1511 1513 1514 1515 1516 1518 1518 1521 1527 1531 1536 1541 1543 1539 1538 1539 1539 1539 1529 1530 1530 1531 1533 1533 1532 1532
1483 1483 1482 1482 1481 1481 1482 1486 1487 1489 1490 1493 1502 1504 1509 1510 1511 1510 1511 1513 1514 1516 1517 1519 1520 1524 1527 1533 1545 1545 1547 1542 1540 1540 1540 1542 1538 1529 1529 1529 1529 1530 1529 1529 1530
1487 1487 1488 1488 1487 1488 1488 1491 1493 1495 1499 1504 1503 1508 1513 1514 1514 1513 1514 1515 1516 1518 1521 1522 1523 1530 1536 1545 1560 1545 1545 1541 1542 1545 1542 1543 1538 1530 1529 1529 1526 1527 1527 1527 1528
1492 1492 1492 1493 1494 1493 1495 1496 1501 1504 1505 1509 1513 1511 1514 1516 1517 1517 1516 1517 1519 1520 1526 1527 1538 1551 1544 1542 1541 1543 1545 1545 1545 1545 1545 1541 1537 1522 1523 1523 1521 1521 1523 1525 1527
1496 1498 1498 1499 1500 1502 1503 1500 1505 1510 1510 1516 1517 1515 1516 1517 1519 1519 1520 1521 1522 1529 1529 1537 1551 1545 1544 1543 1543 1544 1546 1549 1548 1545 1547 1541 1533 1518 1517 1515 1514 1515 1519 1522 1524
1502 1501 1502 1502 1504 1505 1505 1507 1510 1512 1517 1518 1518 1518 1520 1522 1524 1524 1524 1524 1528 1533 1537 1543 1547 1544 1544 1546 1548 1551 1552 1552 1554 1549 1546 1545 1531 1518 1515 1514 1512 1513 1517 1520 1520
1507 1506 1507 1507 1511 1509 1508 1508 1509 1511 1522 1528 1523 1525 1526 1524 1527 1527 1527 1528 1531 1540 1541 1546 1545 1545 1547 1549 1551 1548 1550 1551 1552 1558 1563 1551 1556 1524 1515 1515 1515 1515 1516 1517 1517
1512 1512 1511 1511 1511 1511 1510 1506 1506 1505 1533 1534 1528 1528 1527 1527 1531 1530 1530 1529 1535 1539 1542 1550 1547 1547 1548 1551 1549 1551 1550 1551 1552 1557 1568 1555 1568 1524 1516 1515 1513 1512 1513 1514 1515
1516 1516 1515 1515 1514 1514 1512 1511 1510 1523 1552 1540 1533 1532 1532 1530 1532 1533 1532 1533 1537 1541 1544 1549 1548 1548 1548 1549 1549 1550 1551 1553 1555 1563 1580 1563 1560 1529 1516 1509 1507 1508 1510 1511 1512
1517 1516 1516 1516 1516 1514 1513 1513 1526 1548 1543 1540 1536 1532 1533 1535 1536 1536 1538 1539 1546 1558 1567 1553 1550 1549 1549 1550 1550 1551 1558 1583 1576 1587 1564 1554 1570 1521 1505 1504 1504 1504 1506 1509 1509
1519 1518 1517 1517 1516 1514 1514 1517 1538 1547 1540 1536 1535 1536 1538 1538 1539 1540 1541 1549 1542 1546 1565 1569 1566 1549 1548 1549 1549 1551 1556 1583 1573 1591 1574 1565 1557 1516 1503 1502 1504 1504 1506 1506 1505
1519 1519 1518 1516 1516 1516 1517 1535 1545 1541 1534 1534 1535 1538 1539 1537 1538 1539 1541 1544 1542 1542 1550 1566 1558 1547 1549 1548 1550 1552 1562 1559 1579 1597 1582 1569 1539 1508 1500 1502 1502 1502 1502 1502 1502
1520 1519 1518 1517 1516 1518 1522 1535 1535 1534 1533 1534 1535 1536 1540 1539 1539 1539 1541 1540 1540 1540 1540 1546 1560 1549 1548 1548 1550 1549 1554 1565 1576 1583 1573 1565 1549 1528 1501 1499 1499 1499 1497 1498 1498
1519 1519 1519 1517 1518 1518 1533 1536 1534 1534 1534 1535 1536 1537 1538 1538 1538 1540 1541 1540 1539 1539 1539 1543 1550 1553 1549 1549 1550 1555 1556 1558 1563 1569 1572 1563 1541 1504 1498 1493 1494 1491 1491 1493 1494
1519 1520 1519 1518 1520 1523 1534 1530 1531 1532 1531 1532 1532 1532 1535 1536 1536 1537 1538 1538 1537 1538 1542 1543 1550 1558 1547 1543 1543 1545 1548 1552 1562 1557 1565 1563 1530 1494 1492 1491 1491 1489 1489 1489 1489
1519 1519 1520 1518 1530 1536 1530 1530 1531 1531 1531 1532 1532 1533 1533 1534 1537 1536 1536 1537 1538 1539 1542 1543 1552 1570 1551 1548 1545 1544 1543 1544 1548 1553 1556 1560 1511 1492 1491 1490 1490 1489 1488 1487 1486
1520 1523 1521 1520 1524 1528 1532 1533 1533 1532 1532 1532 1533 1532 1534 1535 1536 1537 1538 1538 1539 1540 1541 1542 1551 1549 1554 1537 1540 1541 1538 1539 1540 1556 1537 1515 1496 1486 1490 1490 1487 1486 1484 1483 1481
1520 1524 1525 1531 1528 1528 1530 1532 1533 1533 1533 1533 1534 1533 1533 1536 1536 1537 1537 1538 1539 1540 1541 1543 1549 1551 1543 1540 1538 1532 1530 1533 1534 1524 1527 1492 1506 1481 1486 1485 1479 1477 1476 1475 1473
1522 1523 1525 1527 1528 1529 1531 1531 1532 1532 1532 1533 1533 1533 1534 1536 1535 1537 1535 1537 1536 1540 1541 1543 1548 1545 1547 1531 1532 1529 1523 1523 1522 1518 1514 1507 1499 1480 1479 1476 1473 1470 1468 1468 1467
1523 1524 1524 1529 1529 1531 1532 1531 1531 1531 1531 1531 1532 1534 1534 1532 1531 1531 1531 1532 1532 1535 1540 1543 1547 1548 1539 1532 1530 1523 1504 1506 1506 1504 1501 1505 1480 1471 1471 1468 1465 1461 1462 1461 1460